�������l�o���
Date,Time,MP-1(��Sv/h),MP-2(��Sv/h),MP-3(��Sv/h),MP-4(��Sv/h),MP-5(��Sv/h),MP-6(��Sv/h),MP-7(��Sv/h),����,����(m/s),���J
2020/05/03,00:00,0.178,0.164,0.278,0.251,0.261,0.143,0.086,��,7.0,��
2020/05/03,00:10,0.178,0.165,0.278,0.253,0.260,0.141,0.086,��,8.1,��
2020/05/03,00:20,0.178,0.165,0.279,0.251,0.258,0.141,0.086,��,8.7,��
2020/05/03,00:30,0.178,0.165,0.277,0.253,0.261,0.141,0.086,��,5.6,��
2020/05/03,00:40,0.178,0.165,0.278,0.250,0.260,0.141,0.085,��,5.7,��
2020/05/03,00:50,0.177,0.165,0.277,0.252,0.263,0.141,0.086,��,2.1,��
2020/05/03,01:00,0.179,0.166,0.277,0.250,0.259,0.141,0.086,-,CALM,��
2020/05/03,01:10,0.179,0.165,0.278,0.252,0.262,0.142,0.085,��,2.1,��
2020/05/03,01:20,0.179,0.165,0.278,0.253,0.260,0.141,0.086,��,1.6,��
2020/05/03,01:30,0.178,0.165,0.279,0.254,0.263,0.142,0.086,���k��,0.7,��
2020/05/03,01:40,0.179,0.165,0.277,0.251,0.259,0.141,0.086,-,CALM,��
2020/05/03,01:50,0.178,0.164,0.279,0.251,0.262,0.141,0.086,�k��,0.7,��
2020/05/03,02:00,0.180,0.164,0.277,0.251,0.261,0.141,0.087,-,CALM,��
2020/05/03,02:10,0.177,0.165,0.278,0.251,0.263,0.140,0.086,-,CALM,��
2020/05/03,02:20,0.179,0.165,0.278,0.251,0.260,0.141,0.086,-,CALM,��
2020/05/03,02:30,0.178,0.165,0.277,0.251,0.262,0.141,0.086,�k�k��,1.0,��
2020/05/03,02:40,0.178,0.165,0.278,0.253,0.259,0.141,0.086,�k�k��,1.5,��
2020/05/03,02:50,0.179,0.165,0.277,0.252,0.263,0.142,0.086,�k��,1.7,��
2020/05/03,03:00,0.179,0.166,0.278,0.251,0.259,0.141,0.086,���k��,2.2,��
2020/05/03,03:10,0.179,0.164,0.277,0.251,0.264,0.141,0.087,�k��,1.8,��
2020/05/03,03:20,0.180,0.165,0.279,0.251,0.259,0.141,0.087,�k��,2.0,��
2020/05/03,03:30,0.179,0.165,0.279,0.252,0.261,0.141,0.087,���k��,1.8,��
2020/05/03,03:40,0.177,0.165,0.278,0.251,0.261,0.141,0.086,�k�k��,1.8,��
2020/05/03,03:50,0.180,0.166,0.279,0.252,0.262,0.141,0.086,�k��,1.8,��
2020/05/03,04:00,0.178,0.164,0.279,0.251,0.260,0.142,0.086,�k,1.4,��
2020/05/03,04:10,0.179,0.166,0.279,0.252,0.262,0.141,0.086,�k�k��,1.2,��
2020/05/03,04:20,0.179,0.165,0.278,0.252,0.260,0.142,0.086,���k��,0.7,��
2020/05/03,04:30,0.179,0.164,0.279,0.252,0.262,0.140,0.086,���k��,0.7,��
2020/05/03,04:40,0.178,0.165,0.276,0.252,0.259,0.141,0.086,�k��,1.0,��
2020/05/03,04:50,0.178,0.164,0.278,0.251,0.262,0.140,0.085,�k�k��,0.6,��
2020/05/03,05:00,0.178,0.165,0.276,0.252,0.259,0.141,0.086,�k,0.9,��
2020/05/03,05:10,0.178,0.164,0.276,0.251,0.261,0.141,0.086,-,CALM,��
2020/05/03,05:20,0.179,0.164,0.278,0.252,0.259,0.140,0.086,�k,1.4,��
2020/05/03,05:30,0.177,0.166,0.277,0.250,0.260,0.141,0.085,�k��,1.1,��
2020/05/03,05:40,0.179,0.164,0.278,0.251,0.259,0.141,0.086,-,CALM,��
2020/05/03,05:50,0.178,0.165,0.277,0.252,0.261,0.142,0.087,-,CALM,��
2020/05/03,06:00,0.179,0.165,0.280,0.250,0.262,0.142,0.086,��쐼,0.9,��
2020/05/03,06:10,0.178,0.166,0.278,0.251,0.261,0.142,0.087,�쐼,0.6,��
2020/05/03,06:20,0.179,0.165,0.278,0.252,0.262,0.142,0.086,��,0.9,��
2020/05/03,06:30,0.178,0.165,0.276,0.252,0.262,0.141,0.087,��쐼,1.2,��
2020/05/03,06:40,0.180,0.165,0.280,0.251,0.263,0.142,0.087,��,1.1,��
2020/05/03,06:50,0.178,0.165,0.277,0.254,0.260,0.143,0.087,��,1.0,��
2020/05/03,07:00,0.180,0.165,0.278,0.251,0.262,0.142,0.088,��쐼,2.0,��
2020/05/03,07:10,0.179,0.165,0.277,0.251,0.261,0.141,0.087,�쐼,2.1,��
2020/05/03,07:20,0.180,0.166,0.274,0.251,0.262,0.142,0.086,�쐼,2.7,��
2020/05/03,07:30,0.179,0.163,0.277,0.251,0.263,0.142,0.087,�쐼,2.5,��
2020/05/03,07:40,0.179,0.165,0.279,0.250,0.259,0.143,0.086,�쐼,2.2,��
2020/05/03,07:50,0.181,0.165,0.276,0.248,0.261,0.143,0.086,��쐼,2.2,��
2020/05/03,08:00,0.178,0.165,0.274,0.250,0.262,0.141,0.086,��,1.7,��
2020/05/03,08:10,0.176,0.164,0.275,0.251,0.260,0.142,0.087,��,1.4,��
2020/05/03,08:20,0.176,0.164,0.275,0.252,0.258,0.141,0.086,��,2.0,��
2020/05/03,08:30,0.178,0.164,0.276,0.250,0.257,0.141,0.086,��,2.3,��
2020/05/03,08:40,0.179,0.164,0.276,0.250,0.258,0.141,0.086,��쐼,2.4,��
2020/05/03,08:50,0.178,0.163,0.275,0.250,0.258,0.141,0.086,��쐼,1.9,��
2020/05/03,09:00,0.177,0.163,0.275,0.249,0.259,0.142,0.086,��쐼,1.3,��
2020/05/03,09:10,0.176,0.162,0.276,0.248,0.262,0.141,0.086,��,0.9,��
2020/05/03,09:20,0.179,0.165,0.275,0.249,0.264,0.141,0.085,-,CALM,��
2020/05/03,09:30,0.179,0.164,0.274,0.249,0.261,0.141,0.086,��쓌,1.6,��
2020/05/03,09:40,0.178,0.164,0.276,0.249,0.259,0.141,0.086,��쓌,4.0,��
2020/05/03,09:50,0.177,0.164,0.277,0.249,0.259,0.142,0.086,��쓌,6.2,��
2020/05/03,10:00,0.176,0.163,0.276,0.249,0.259,0.140,0.085,��,5.6,��
2020/05/03,10:10,0.177,0.164,0.275,0.250,0.260,0.140,0.087,��,5.6,��
2020/05/03,10:20,0.179,0.165,0.276,0.254,0.263,0.141,0.085,��,5.2,��
2020/05/03,10:30,0.179,0.164,0.275,0.254,0.262,0.140,0.085,��,7.2,��
2020/05/03,10:40,0.178,0.164,0.275,0.252,0.260,0.140,0.085,��쓌,6.5,��
2020/05/03,10:50,0.177,0.163,0.276,0.251,0.259,0.140,0.086,��,6.1,��
2020/05/03,11:00,0.176,0.163,0.275,0.250,0.258,0.140,0.085,��쓌,6.4,��
2020/05/03,11:10,0.175,0.163,0.278,0.249,0.260,0.141,0.086,��,7.0,��
2020/05/03,11:20,0.176,0.164,0.278,0.249,0.258,0.141,0.085,��쓌,6.2,��
2020/05/03,11:30,0.177,0.163,0.277,0.250,0.259,0.141,0.085,��,7.5,��
2020/05/03,11:40,0.176,0.164,0.275,0.250,0.258,0.140,0.085,��,7.3,��
2020/05/03,11:50,0.176,0.165,0.278,0.249,0.258,0.140,0.085,��쓌,8.1,��
2020/05/03,12:00,0.177,0.164,0.276,0.248,0.257,0.139,0.084,��,9.4,��
2020/05/03,12:10,0.180,0.163,0.276,0.252,0.258,0.142,0.085,��,8.6,��
2020/05/03,12:20,0.180,0.163,0.277,0.253,0.262,0.140,0.085,��쓌,9.2,��
2020/05/03,12:30,0.179,0.164,0.277,0.253,0.263,0.141,0.085,��,8.5,��
2020/05/03,12:40,0.176,0.164,0.277,0.250,0.262,0.140,0.086,��쓌,9.3,��
2020/05/03,12:50,0.175,0.164,0.276,0.250,0.260,0.140,0.085,��쓌,9.9,��
2020/05/03,13:00,0.177,0.162,0.281,0.249,0.260,0.141,0.085,��쓌,9.6,��
2020/05/03,13:10,0.179,0.161,0.282,0.252,0.257,0.140,0.084,��,9.3,��
2020/05/03,13:20,0.178,0.165,0.279,0.252,0.257,0.140,0.085,��쓌,6.7,��
2020/05/03,13:30,0.177,0.165,0.278,0.251,0.258,0.140,0.086,��쓌,8.2,��
2020/05/03,13:40,0.177,0.163,0.277,0.250,0.258,0.140,0.084,��쓌,8.8,��
2020/05/03,13:50,0.176,0.163,0.276,0.250,0.258,0.141,0.085,��쓌,10.9,��
2020/05/03,14:00,0.175,0.163,0.275,0.249,0.258,0.140,0.085,��쓌,10.7,��
2020/05/03,14:10,0.176,0.165,0.275,0.249,0.259,0.141,0.085,��쓌,11.8,��
2020/05/03,14:20,0.180,0.164,0.275,0.253,0.264,0.141,0.084,��쓌,11.4,��
2020/05/03,14:30,0.178,0.163,0.275,0.253,0.262,0.140,0.086,��쓌,10.4,��
2020/05/03,14:40,0.178,0.163,0.275,0.250,0.260,0.141,0.085,��쓌,12.0,��
2020/05/03,14:50,0.176,0.163,0.278,0.248,0.258,0.141,0.084,��쓌,11.5,��
2020/05/03,15:00,0.176,0.165,0.279,0.251,0.257,0.140,0.086,��,11.1,��
2020/05/03,15:10,0.179,0.164,0.278,0.254,0.262,0.140,0.084,��쓌,11.5,��
2020/05/03,15:20,0.177,0.163,0.277,0.252,0.262,0.141,0.085,��,11.0,��
2020/05/03,15:30,0.177,0.164,0.275,0.250,0.260,0.140,0.085,��,9.8,��
2020/05/03,15:40,0.176,0.165,0.280,0.253,0.259,0.140,0.084,��,8.5,��
2020/05/03,15:50,0.175,0.163,0.282,0.252,0.258,0.141,0.085,��,10.7,��
2020/05/03,16:00,0.178,0.164,0.277,0.250,0.258,0.141,0.085,��,10.9,��
2020/05/03,16:10,0.178,0.165,0.275,0.250,0.262,0.140,0.085,��,10.6,��
2020/05/03,16:20,0.178,0.163,0.280,0.253,0.261,0.139,0.085,��,10.7,��
2020/05/03,16:30,0.177,0.165,0.280,0.250,0.259,0.140,0.086,��,9.5,��
2020/05/03,16:40,0.180,0.164,0.277,0.252,0.261,0.141,0.085,��,9.4,��
2020/05/03,16:50,0.178,0.164,0.278,0.253,0.263,0.140,0.086,��,9.6,��
2020/05/03,17:00,0.177,0.165,0.279,0.251,0.260,0.140,0.084,��,11.2,��
2020/05/03,17:10,0.179,0.164,0.276,0.253,0.259,0.140,0.085,��,11.7,��
2020/05/03,17:20,0.178,0.164,0.278,0.253,0.260,0.140,0.085,��,12.0,��
2020/05/03,17:30,0.177,0.165,0.280,0.251,0.258,0.141,0.085,��,10.9,��
2020/05/03,17:40,0.180,0.163,0.276,0.253,0.258,0.140,0.085,��,11.4,��
2020/05/03,17:50,0.177,0.163,0.278,0.252,0.261,0.140,0.085,��,10.8,��
2020/05/03,18:00,0.179,0.163,0.277,0.250,0.258,0.140,0.086,��,11.1,��
2020/05/03,18:10,0.179,0.164,0.277,0.253,0.262,0.141,0.085,��,10.6,��
2020/05/03,18:20,0.178,0.164,0.279,0.250,0.260,0.140,0.085,��,10.3,��
2020/05/03,18:30,0.178,0.163,0.277,0.253,0.262,0.141,0.086,��,10.1,��
2020/05/03,18:40,0.178,0.165,0.279,0.253,0.262,0.141,0.085,��,10.7,��
2020/05/03,18:50,0.180,0.163,0.278,0.252,0.260,0.141,0.085,��,11.5,��
2020/05/03,19:00,0.178,0.165,0.279,0.253,0.262,0.140,0.085,��,11.8,��
2020/05/03,19:10,0.178,0.163,0.280,0.251,0.259,0.140,0.085,��,11.5,��
2020/05/03,19:20,0.179,0.164,0.277,0.254,0.261,0.142,0.085,��,12.0,��
2020/05/03,19:30,0.178,0.164,0.280,0.250,0.260,0.140,0.085,��,9.8,��
2020/05/03,19:40,0.178,0.163,0.277,0.252,0.260,0.140,0.085,��,9.8,��
2020/05/03,19:50,0.178,0.164,0.280,0.251,0.261,0.140,0.085,��,9.6,��
2020/05/03,20:00,0.179,0.164,0.277,0.253,0.259,0.140,0.085,��,9.3,��
2020/05/03,20:10,0.178,0.163,0.279,0.253,0.261,0.141,0.086,��,10.1,��
2020/05/03,20:20,0.179,0.164,0.277,0.249,0.259,0.141,0.085,��,10.1,��
2020/05/03,20:30,0.177,0.163,0.278,0.253,0.262,0.141,0.085,��,10.4,��
2020/05/03,20:40,0.179,0.164,0.278,0.251,0.260,0.140,0.085,��,9.0,��
2020/05/03,20:50,0.178,0.163,0.276,0.253,0.260,0.140,0.085,��,10.1,��
2020/05/03,21:00,0.177,0.165,0.280,0.252,0.260,0.141,0.085,��,9.5,��
2020/05/03,21:10,0.179,0.163,0.276,0.252,0.260,0.140,0.085,��,10.0,��
2020/05/03,21:20,0.178,0.165,0.279,0.252,0.262,0.142,0.085,��,8.7,��
2020/05/03,21:30,0.177,0.163,0.277,0.251,0.258,0.140,0.085,��,8.2,��
2020/05/03,21:40,0.178,0.165,0.280,0.253,0.262,0.141,0.085,��,8.1,��
2020/05/03,21:50,0.177,0.163,0.276,0.251,0.259,0.141,0.085,��,8.7,��
2020/05/03,22:00,0.178,0.164,0.279,0.252,0.261,0.141,0.085,��,9.2,��
2020/05/03,22:10,0.178,0.164,0.278,0.251,0.259,0.140,0.084,��,9.2,��
2020/05/03,22:20,0.178,0.164,0.279,0.253,0.260,0.139,0.085,��,10.4,��
2020/05/03,22:30,0.179,0.163,0.278,0.251,0.260,0.142,0.085,��,9.8,��
2020/05/03,22:40,0.177,0.164,0.278,0.253,0.260,0.141,0.086,��,10.4,��
2020/05/03,22:50,0.178,0.163,0.278,0.251,0.261,0.141,0.084,��,11.5,��
2020/05/03,23:00,0.178,0.164,0.278,0.253,0.259,0.141,0.085,��,10.6,��
2020/05/03,23:10,0.179,0.163,0.279,0.251,0.262,0.141,0.084,��,11.1,��
2020/05/03,23:20,0.177,0.165,0.277,0.253,0.259,0.140,0.085,��,11.4,��
2020/05/03,23:30,0.178,0.164,0.280,0.251,0.261,0.141,0.085,��,10.1,��
2020/05/03,23:40,0.178,0.165,0.277,0.252,0.259,0.141,0.085,��,9.6,��
2020/05/03,23:50,0.178,0.164,0.279,0.251,0.263,0.140,0.084,��,10.1,��
